Ashotsk, Armenia

10:54 PM AMT on February 09, 2016 (GMT +0400)
Gyumri Shirak Airport | | Change Station
CLOSE
Current Station
Airport
Location: Gyumri Shirak Airport,
Elevation: 5000 ft
Nearby Weather Stations

Elev 5000 ft 40.75 °N, 43.86 °E | Updated 24 minutes ago

Overcast
Overcast
21 °F
Feels Like 21 °F
N
0
Wind Variable Wind from North

Today
High -- | Low -- °F
--% Chance of Precip.
Yesterday
High -- | Low -- °F
Precip. -- in
Pressure 30.27 in
Visibility 4.3 miles
Clouds Overcast 2600 ft
Dew Point 19 °F
Humidity 93%
Rainfall 0.00 in
Snow Depth Not available.
8:07 AM 6:31 PM
New Moon, 2% visible
METAR UDSG 091830Z 00000MPS 7000 OVC026 M06/M07 Q1025 R02/CLRD70 NOSIG
Pressure 30.27 in
Visibility 4.3 miles
Clouds Overcast 2600 ft
Dew Point 19 °F
Humidity 93%
Rainfall 0.00 in
Snow Depth Not available.
8:07 AM 6:31 PM
New Moon, 2% visible
METAR UDSG 091830Z 00000MPS 7000 OVC026 M06/M07 Q1025 R02/CLRD70 NOSIG

10-Day Weather Forecast

Almanac

Astronomy

Feb. 09, 2016 Rise Set
Actual Time
Civil Twilight
Nautical Twilight
Astronomical Twilight
Moon
Length of Visible Light
Length of Day
Tomorrow will be .
, % of the Moon is Illuminated

Today's Extremes

Country Highs Country Lows

Community

WunderPhotos

Upload Photos

1,891,660 photos uploaded!

WunderBlog® & News

Nearby

Air Quality

  Air Quality AQ Index Pollutant
Not available.

Snow Depth

Station Depth Elevation

Earthquake Activity

City Distance Mag. Time & Date
Minimum magnitude displayed is 2.5.

Coastal Water Temperatures

Place Temperature

Stations

Nearby Weather Stations

Station Location Temp. Windchill Dew Point Humidity Wind Precip. Elev Updated Type